Regional Weather Roundup
Issued by NWS

Home | Current Version | Previous Version | Graphics & Text | Print | Product List | Glossary On
Versions: 1 2 3 4 5 6 7 8 9 10 11 12 13 14 15 16 17 18 19 20 21 22 23 24 25 26 27 28 29 30 31 32 33 34 35 36 37 38 39 40 41 42 43 44 45 46 47 48 49 50
650
ASUS43 KDMX 311503
RWRIA

WEATHER ROUNDUP FOR IOWA
NATIONAL WEATHER SERVICE DES MOINES IA
1000 AM CDT TUE MAY 31 2016

NOTE: "FAIR" INDICATES FEW OR NO CLOUDS BELOW 12,000 FEET WITH NO
SIGNIFICANT WEATHER AND/OR OBSTRUCTIONS TO VISIBILITY.

* - THESE STATIONS ARE NOT NWS STATIONS...THUS NOT UNDER NWS
QUALITY CONTROL.  THEY ALSO DO NOT REPORT WEATHER SUCH
AS PRECIPITATION OR FOG.

IAZ001>003-012>014-020>022-031>034-043>046-311600-
   NORTHWEST IOWA

CITY           SKY/WX    TMP DP  RH WIND       PRES   REMARKS
CARROLL *      PTSUNNY   73  63  68 SW10      29.91R
CHEROKEE *     RAIN      62  62  99 W6        29.94R
DENISON *      PTSUNNY   68  63  83 W10       29.92R
LE MARS *      CLOUDY    63  57  82 NW9       29.96R
ORANGE CITY *  LGT RAIN  61  57  88 W9        29.95R
SHELDON *      CLOUDY    61  57  88 NW9G16    29.91R
SIOUX CITY     CLOUDY    64  58  80 NW8       29.95R
SPENCER        RAIN      63  60  90 W10       29.92R FOG
STORM LAKE *   PTSUNNY   64  61  88 W8        29.93R
$$

IAZ055>058-069>071-079>083-090>094-311600-
   SOUTHWEST IOWA

CITY           SKY/WX    TMP DP  RH WIND       PRES   REMARKS
ATLANTIC *     CLOUDY    70  63  78 SW6       29.92R
AUDUBON *        N/A     72  64  78 SW7       29.93R
CLARINDA *       N/A     72  64  78 MISG      29.94R
COUNCIL BLFS * MOSUNNY   68  63  83 NW14      29.93S
CRESTON *      MOSUNNY   70  63  78 S12       29.95S
HARLAN  *      PTSUNNY   70  63  78 W10       29.96R
LAMONI         SUNNY     71  61  70 S9        29.94F
RED OAK *      CLOUDY    70  64  83 SW6       29.93R
SHENANDOAH *   PTSUNNY   70  64  83 CALM      29.93R
$$

IAZ047>049-059>061-072>074-084-311600-
   CENTRAL IOWA

CITY           SKY/WX    TMP DP  RH WIND       PRES   REMARKS
AMES           MOSUNNY   73  64  73 S7        29.91S
ANKENY *       CLOUDY    75  63  64 S10       29.92S
BOONE *        CLOUDY    72  64  78 S7        29.91S
CHARITON *     MOSUNNY   73  61  64 S10G16    29.95S
DES MOINES     CLOUDY    72  60  66 S10       29.92S
GRINNELL*      MOSUNNY   72  61  68 S8        29.94S
KNOXVILLE *    CLOUDY    72  61  68 SW9       29.93F
MARSHALLTOWN   MOSUNNY   73  63  70 S10       29.92S
NEWTON *       CLOUDY    72  63  73 S12       29.94R
PERRY *          N/A     72  66  83 S9        29.92R
$$

IAZ004>006-015-016-023>025-035-036-311600-
   NORTH CENTRAL IOWA

CITY           SKY/WX    TMP DP  RH WIND       PRES   REMARKS
ALGONA *       CLOUDY    68  64  88 SW8       29.90S
CLARION *      CLOUDY    72  66  83 SW8       29.91S
ESTHERVILLE    LGT RAIN  63  60  90 W9        29.89S
FORT DODGE *   MOSUNNY   72  63  73 S6        29.91S
MASON CITY     CLOUDY    70  64  81 SW12      29.92F
FOREST CITY *  PTSUNNY   68  63  83 S10       29.91S
WEBSTER CITY * SUNNY     72  66  83 S10       29.89S
IOWA FALLS *     N/A     72  64  78 S8        29.93F
$$

IAZ007>011-017>019-026>030-037>042-050>054-066-311600-
   NORTHEAST IOWA

CITY           SKY/WX    TMP DP  RH WIND       PRES   REMARKS
CEDAR RAPIDS   CLOUDY    74  64  71 S7        29.93F
CHARLES CITY * SUNNY     70  64  83 S15       29.93F
CLINTON *      PTSUNNY   73  65  75 S13G18    29.95F
DECORAH *      MOSUNNY   72  63  73 S8G15     29.93F
DUBUQUE        PTSUNNY   70  62  76 S13       29.97S
MONTICELLO *   PTSUNNY   73  63  68 SW13G20   29.96S
OELWEIN *      CLOUDY    72  64  78 S13       29.95F
WATERLOO       SUNNY     73  61  65 S10       29.91F
$$

IAZ064-065-067-068-078-311600-
   EAST CENTRAL IOWA

CITY           SKY/WX    TMP DP  RH WIND       PRES   REMARKS
DAVENPORT      LGT RAIN  71  61  70 SW12G17   29.98R
IOWA CITY      CLOUDY    73  62  68 CALM      29.96F
MT. PLEASANT * CLOUDY    73  66  78 CALM      29.97F
MUSCATINE *    CLOUDY    72  61  68 CALM      29.96F
QUAD CITIES    CLOUDY    72  63  73 NW5       29.96S
$$

IAZ062-063-075>077-085>089-095>099-311600-
   SOUTHEAST IOWA

CITY           SKY/WX    TMP DP  RH WIND       PRES   REMARKS
BURLINGTON     CLOUDY    73  63  70 VRB3      29.97F
FAIRFIELD *      N/A    N/A N/A N/A MISG        N/A
FORT MADISON * CLOUDY    73  63  68 CALM      29.97F
KEOKUK *       PTSUNNY   73  64  73 CALM      29.96F
OSKALOOSA *      N/A     72  61  67 S7        29.96S
OTTUMWA        PTSUNNY   71  62  73 S7        29.95F
WASHINGTON *   SUNNY     73 -36   1 VRB3      29.97F
$$

ABBREVIATIONS USED IN REMARKS
   TC - TEMPERATURES IN CELSIUS
  WCI - WIND CHILL INDEX
   HX - HEAT INDEX
  VSB - VISIBILITY
$$





USA.gov is the U.S. government's official web portal to all federal, state and local government web resources and services.